Location: El Bakhil
(32.7726°N, 5.5387°W)
Time: 23:45:50
(UTC+00:00)

Hubble Space Telescope - Pass Details

Date: 06 December 2021
Orbit: 535 x 538 km, 28.5° (Epoch: 23 January)

Event Time Altitude Azimuth Distance (km) Brightness Sun altitude
Exits shadow 04:47:06 13° 161° (SSE) 1,614 3.5 -29.5°
Drops below altitude 10° 04:47:42 10° 154° (SSE) 1,769 3.8 -29.4°
Sets 04:50:26 0° 136° (SE) 2,657 5.1 -28.8°
